Regional Weather Roundup
Issued by NWS

Home | Current Version | Previous Version | Text Only | Print | Product List | Glossary Off
Versions: 1 2 3 4 5 6 7 8 9 10 11 12 13 14 15 16 17 18 19 20 21 22 23 24 25 26 27 28 29 30 31 32 33 34 35 36 37 38 39 40 41 42 43 44 45 46 47 48 49 50

000
ASUS43 KIND 261709
RWRIN

WEATHER ROUNDUP FOR INDIANA
NATIONAL WEATHER SERVICE INDIANAPOLIS IN
100 PM EDT FRI MAY 26 2017

NOTE: "FAIR" INDICATES FEW OR NO CLOUDS BELOW 12,000 FEET WITH NO
SIGNIFICANT WEATHER AND/OR OBSTRUCTIONS TO VISIBILITY.

* - STATION DOES NOT REPORT WEATHER SUCH AS PRECIPITATION OR FOG.

+ - STATION NOT QUALITY CONTROLLED BY THE NATIONAL WEATHER SERVICE.
    USE DATA WITH CAUTION...ESPECIALLY DEWPOINT AND RELATIVE
    HUMIDITY OBSERVATIONS.

INZ001>003-010>013-019-020-261800-
NORTHWEST INDIANA

CITY           SKY/WX    TMP DP  RH WIND       PRES   REMARKS
GARY /AIRPORT/ PTSUNNY   70  55  60 NE9       29.83F
KNOX *+        MOSUNNY   68  46  45 E5        29.84F
LA PORTE +     MOSUNNY   68  54  60 E3        29.85F
MICHIGAN CITY+ MOSUNNY   68  54  60 CALM      29.84F
MONTICELLO +   PTSUNNY   70  58  65 SE6       29.84F
RENSSELAER +   CLOUDY    70  55  60 E10       29.83S
VALPARAISO     PTSUNNY   71  57  61 E7        29.84F

$$

LMZ046-743>745-261800-
SOUTHERN LAKE MICHIGAN

STATION/POSITION TIME  TEMP    WIND        PRES    WAVE
                       AIR SEA DIR/SP/G            HT
                 (UTC) (F)     (DEG/KT/KT) (MB)    (FT)
BURNS HARBOR     1630   59      70/ 10/ 11 1010.8F
MICHIGAN CITY    1640   57      40/  8/  8   N/A
5NW MICH CITY    1700   56 53   60/ 10/ 12   N/A     1

$$

INZ004-005-014>016-021>024-261800-
NORTH CENTRAL INDIANA

CITY           SKY/WX    TMP DP  RH WIND       PRES   REMARKS
ELKHART        MOSUNNY   68  54  60 CALM      29.87F
GOSHEN         CLOUDY    67  53  61 N6        29.87F
LOGANSPORT +   MOSUNNY   68  57  68 E7        29.85F
PERU/GRISSOM   PTSUNNY   69  57  65 CALM      29.85F
ROCHESTER +    CLOUDY    72  55  56 SE5       29.85F
SOUTH BEND     CLOUDY    68  55  63 CALM      29.86F
WARSAW +       MOSUNNY   68  54  60 W6        29.87F

$$

INZ006>009-017-018-025>027-261800-
NORTHEAST INDIANA

CITY           SKY/WX    TMP DP  RH WIND       PRES   REMARKS
ANGOLA *+      MOSUNNY   68  61  77 VRB5      29.88F
AUBURN +       MOSUNNY   68  54  60 SW8       29.90S
FORT WAYNE     PTSUNNY   69  55  60 W6        29.89F
HUNTINGTON +   MOSUNNY  N/A N/A N/A NW3       29.88F
KENDALLVILLE + CLOUDY    68  54  60 W8        29.89F

$$

INZ028-029-035-036-043>045-051>053-261800-
WEST CENTRAL INDIANA

CITY           SKY/WX    TMP DP  RH WIND       PRES   REMARKS
CRAWFORDSVL +  CLOUDY    69  57  64 S8        29.85R
GREENCASTLE +  MOSUNNY   72  57  60 S9        29.86F
LAFAYETTE      CLOUDY    72  59  63 SE10      29.83F
TERRE HAUTE    MOSUNNY   76  59  55 SE17      29.82F

$$

INZ030>032-037>040-046>048-054>057-064-065-261800-
CENTRAL INDIANA

CITY           SKY/WX    TMP DP  RH WIND       PRES   REMARKS
ANDERSON       MOSUNNY   73  61  64 W5        29.90F
CP ATTERBURY + SUNNY     75  55  50 S6        29.89F
COLUMBUS       SUNNY     73  50  43 S6        29.90F
FRANKFORT +    CLOUDY    76  60  58 S6        29.88R
GREENWOOD *+   MOSUNNY   74  56  54 S8        29.88F
INDIANAPOLIS   PTSUNNY   72  57  59 S8        29.85F
-EAGLE CREEK   MOSUNNY   74  54  49 S8        29.85F
KOKOMO +       MOSUNNY   69  58  67 CALM      29.87F
MARION +       SUNNY     66  55  68 CALM      29.88F
MT COMFORT *+  PTSUNNY   73  57  56 S6        29.88F
SHELBYVILLE    MOSUNNY   76  57  51 SW9       29.88F
ZIONSVILLE +   CLOUDY    71  57  61 S5        29.87F

$$

INZ033-034-041-042-049-050-058-059-261800-
EAST CENTRAL INDIANA

CITY           SKY/WX    TMP DP  RH WIND       PRES   REMARKS
MUNCIE         SUNNY     73  57  57 CALM      29.88F
RICHMOND +     MOSUNNY   68  55  64 SW5       29.93F

$$

INZ060-061-067>069-081>083-085>088-261800-
SOUTHWEST INDIANA

CITY           SKY/WX    TMP DP  RH WIND       PRES   REMARKS
EVANSVILLE     MOSUNNY   78  62  57 SE8       29.86S
HUNTINGBURG *+ CLOUDY    76  63  64 SE12      29.86F
WASHINGTON +   MOSUNNY   75  59  56 SE14      29.83F

$$

INZ062-063-066-070>080-084-089>092-261800-
SOUTH CENTRAL AND SOUTHEAST INDIANA

CITY           SKY/WX    TMP DP  RH WIND       PRES   REMARKS
BEDFORD +      MOSUNNY   73  57  56 S7        29.88F
BLOOMINGTON    PTSUNNY   75  57  53 S14       29.87F
MADISON *+     SUNNY     75  54  46 S5        29.93F
NORTH VERNON + SUNNY     72  57  60 S9        29.91F
SEYMOUR +      SUNNY     75  55  50 S9        29.90F

$$





USA.gov is the U.S. government's official web portal to all federal, state and local government web resources and services.